Theta_e
315 315 315 316 321 324 327 326 326 332 329 328 331 327 325 327 327 324 320 319 319 319 320 322 323 323 323 324 325 325 324 329 331 330 331 327 327 324 318 319 319 317 317 316 316 316 316 313 312 313 314 315 319 320 318 316 317 318 318 318 320 321 321 321 321 321 323 325 326 327 328 329 329 330 330 331 330 330 330 329 330 330 329 329 329 330 332 333 334 334 335 336 335 333 333 333 333
314 316 316 317 324 326 330 328 329 333 327 327 330 326 325 326 324 323 322 321 320 319 320 321 322 323 322 322 321 322 323 325 324 326 324 321 325 323 318 322 320 316 317 315 316 315 314 314 313 313 313 313 313 314 313 313 314 313 314 314 314 315 315 315 316 317 318 319 320 321 322 324 326 328 328 329 329 330 329 329 329 329 328 328 329 329 330 331 331 332 333 333 332 332 332 332 333
316 319 319 321 326 326 329 329 332 330 323 327 333 331 324 322 325 324 322 320 320 319 320 320 321 321 320 322 321 320 323 323 321 321 320 321 324 321 319 322 320 316 315 315 315 314 314 314 313 314 314 314 314 313 313 313 313 313 313 313 313 313 312 313 313 313 313 313 314 315 315 317 318 319 321 321 322 323 323 324 324 323 323 325 328 329 329 329 328 328 329 330 330 331 331 331 332
318 322 322 325 329 328 330 332 335 329 324 328 329 331 325 326 329 322 320 319 319 319 318 319 320 320 319 322 320 321 323 322 321 321 321 321 321 320 320 321 319 316 315 314 314 313 314 314 314 314 313 313 313 313 312 312 313 312 313 312 312 312 312 312 312 312 312 312 312 312 312 312 313 313 314 314 314 315 315 316 316 317 317 318 322 325 328 329 329 329 329 329 329 329 329 330 330
320 324 325 328 332 330 330 332 334 328 330 329 322 329 328 327 327 320 319 319 319 318 318 318 320 320 318 320 320 321 323 322 322 321 320 320 319 319 319 319 318 315 315 314 313 314 313 314 314 313 313 312 311 311 311 310 311 311 311 311 311 310 311 310 310 310 310 310 310 310 310 310 311 311 311 311 311 312 312 312 312 313 313 313 315 317 319 323 326 327 328 329 329 330 330 330 330
321 324 326 326 328 327 329 332 333 329 330 327 322 328 325 323 323 318 318 318 319 318 318 318 319 320 318 319 319 321 322 321 322 320 319 319 319 319 319 319 317 315 315 314 314 314 314 314 313 313 312 311 310 310 310 310 310 310 309 309 309 309 309 309 308 308 308 308 308 308 307 307 307 307 308 308 309 309 309 310 310 311 311 311 311 312 313 314 316 318 320 322 324 325 327 328 329
321 323 323 324 326 324 329 332 331 330 327 325 325 327 323 321 319 318 319 318 319 317 318 318 318 320 319 319 319 320 321 322 321 319 318 318 318 319 319 318 317 316 315 314 314 314 314 314 313 313 311 310 310 309 310 309 309 309 309 309 308 308 308 307 307 306 306 305 305 305 304 304 304 304 304 305 305 305 305 306 306 307 308 308 309 309 310 310 311 311 312 313 315 316 318 320 322
323 325 322 328 331 324 327 329 327 326 326 324 323 323 322 319 317 319 320 318 319 317 318 319 318 320 320 319 319 319 320 321 320 320 318 317 317 318 318 318 317 316 314 314 314 314 314 314 313 312 311 310 309 309 309 309 309 309 308 308 308 307 306 305 305 304 304 304 303 303 303 303 303 303 303 303 303 303 304 304 304 304 304 305 305 305 306 307 307 307 308 308 309 310 311 312 313
323 325 323 328 331 326 328 328 325 324 325 325 321 320 320 320 319 320 320 319 318 317 317 318 318 319 319 318 318 319 318 319 319 319 318 317 317 317 318 318 318 316 314 314 314 314 314 313 313 312 311 310 309 309 309 309 309 308 308 307 306 305 304 304 303 303 303 303 303 303 303 303 303 303 303 303 303 303 303 303 303 303 303 303 303 303 303 303 304 304 304 304 305 305 306 306 307
322 323 322 326 329 328 329 327 327 329 326 324 322 320 320 320 320 320 320 319 319 317 317 318 318 318 318 318 318 318 318 318 318 318 317 317 317 316 317 317 318 317 315 313 314 314 313 313 313 312 311 310 310 309 309 308 308 308 308 306 305 304 303 303 303 303 303 303 303 303 303 303 303 303 303 303 303 303 303 303 303 303 303 303 303 303 303 303 303 303 303 303 303 303 303 303 303
322 323 322 325 327 326 330 329 329 333 328 322 320 319 320 321 320 319 318 319 319 318 317 318 318 317 316 317 318 318 318 318 318 318 317 316 316 316 316 316 317 317 315 313 313 314 313 313 313 312 311 310 310 309 309 308 308 308 307 306 304 303 303 304 303 304 304 304 304 303 303 303 303 303 303 303 303 303 303 303 303 303 303 303 303 302 302 302 302 302 302 302 302 302 302 302 302
323 326 324 325 328 326 328 329 327 331 331 326 320 319 320 319 319 319 318 319 318 317 318 317 318 317 317 317 317 318 318 318 318 318 316 316 316 315 316 316 316 317 316 313 313 313 313 313 312 311 311 310 309 309 309 308 308 307 307 305 304 303 303 304 304 304 304 304 304 304 304 303 303 303 303 303 303 303 303 302 302 302 302 302 302 302 302 302 302 302 302 302 302 302 302 302 302
322 325 324 327 332 329 326 326 328 330 332 327 319 318 319 319 319 319 319 318 317 318 319 318 318 318 318 317 317 318 317 318 318 317 317 316 315 315 315 315 316 317 316 314 313 313 313 313 312 311 311 310 309 309 309 308 308 307 307 305 304 303 303 303 304 304 304 304 304 304 304 304 303 303 303 303 302 302 302 302 302 302 302 302 302 302 302 302 302 302 302 302 302 302 302 302 302
321 322 322 328 332 328 324 326 327 327 330 326 318 318 319 318 319 318 319 319 318 319 319 318 318 318 318 318 318 318 318 318 318 317 317 316 316 315 315 315 315 316 316 315 314 313 313 312 312 311 311 310 309 309 308 308 307 307 306 305 303 303 303 303 303 303 303 303 303 303 303 304 303 303 303 302 302 302 302 302 302 302 302 301 301 301 301 301 301 301 301 301 302 302 301 302 302
321 321 322 325 329 326 325 327 325 323 330 327 318 318 318 318 319 318 319 319 319 318 319 318 317 318 318 317 318 317 318 318 318 317 317 316 316 315 314 315 315 316 316 316 315 314 313 312 312 311 311 310 309 309 308 308 308 307 306 304 303 303 303 303 303 303 303 303 304 304 303 303 303 303 302 302 302 302 302 301 301 301 301 301 301 301 301 301 301 301 301 301 301 301 301 301 301
320 321 322 324 327 326 326 328 326 325 330 324 317 318 318 317 318 318 318 318 318 318 318 318 317 318 317 317 317 317 317 317 317 317 317 316 315 315 314 315 315 315 315 316 315 314 313 313 312 311 311 310 309 309 308 308 307 307 306 304 303 302 302 303 303 303 303 304 304 304 304 303 303 303 303 302 302 302 302 302 302 302 302 302 302 302 302 301 301 301 301 301 300 300 300 300 300
320 321 324 326 328 326 329 331 324 325 329 321 316 317 318 318 317 317 318 317 318 318 318 318 317 318 317 317 317 317 317 318 318 317 316 316 315 315 314 315 314 315 315 315 315 314 313 313 312 312 311 311 310 309 308 308 307 307 306 305 303 302 302 303 303 303 304 304 304 304 303 303 304 304 304 304 303 303 303 303 303 303 303 303 303 303 303 303 302 302 302 301 301 301 300 300 300
321 326 325 324 327 326 330 328 320 322 325 319 316 317 317 318 317 317 317 317 316 316 317 318 317 317 317 317 317 317 317 317 317 317 317 316 315 315 314 315 314 314 314 314 314 314 314 313 312 312 311 311 310 309 308 308 307 307 306 305 303 302 303 303 303 303 304 304 304 304 303 304 304 304 304 304 305 304 304 304 303 303 303 303 304 304 304 304 303 303 303 302 302 301 300 300 300
322 329 325 326 331 326 323 322 318 319 319 317 317 317 317 318 317 316 317 317 315 316 316 316 316 317 316 317 317 316 316 316 316 316 317 316 316 315 315 315 314 314 314 314 314 314 314 313 312 311 311 311 310 309 308 308 307 307 307 306 304 303 303 303 303 303 303 304 304 304 304 303 304 304 305 305 305 304 304 303 303 303 303 304 304 304 304 304 304 303 303 303 302 302 301 301 300
321 323 325 331 330 322 320 319 318 318 318 317 316 317 316 317 317 315 316 316 316 316 315 314 315 316 316 316 316 316 316 315 316 316 316 315 316 315 315 315 314 314 314 314 314 314 314 313 312 311 311 311 310 309 309 308 307 307 307 306 304 303 302 303 303 303 303 303 303 303 303 303 304 304 304 304 304 304 304 303 303 303 303 304 304 304 304 304 304 304 303 303 303 303 302 301 301
320 320 325 327 321 319 321 319 318 318 317 317 316 316 316 316 317 315 315 316 317 315 315 316 316 317 316 316 316 315 316 315 315 315 315 315 315 315 315 315 314 314 314 314 314 313 313 313 312 311 311 311 310 309 309 308 308 307 307 306 305 302 302 302 302 303 303 303 303 303 303 303 303 304 304 304 304 304 303 303 303 303 303 303 303 304 304 304 304 304 304 304 303 303 302 301 301
321 319 320 320 318 320 321 318 318 318 317 317 316 316 316 316 316 316 315 316 317 315 316 317 317 317 317 316 316 316 316 316 316 315 315 315 315 315 315 314 314 313 313 313 313 313 313 313 312 312 311 311 310 310 309 308 308 307 307 307 305 303 302 302 302 302 302 302 303 303 303 303 303 303 303 303 303 303 303 303 303 303 303 303 303 303 304 304 304 304 304 304 303 303 302 301 300
322 321 318 318 318 319 320 319 318 317 317 316 315 316 315 315 316 316 315 315 317 316 316 317 317 317 316 316 316 316 316 316 316 316 316 316 316 316 315 315 314 314 314 313 313 313 313 313 312 312 312 311 310 310 309 308 308 307 307 307 306 303 302 302 302 302 302 302 302 303 302 302 303 303 303 303 303 303 303 303 303 303 303 303 303 303 303 303 304 304 304 303 303 302 302 301 300
321 322 318 318 319 318 319 318 317 317 316 316 316 315 315 315 316 316 315 316 317 316 316 316 317 317 316 316 316 316 316 316 316 317 317 317 316 316 315 315 314 314 314 313 313 313 312 312 312 312 312 311 311 310 309 309 308 307 307 307 306 304 302 301 301 301 302 302 302 302 302 302 302 302 302 302 302 302 302 302 302 302 302 303 303 303 303 303 303 303 303 303 302 302 301 300 299
319 320 318 317 318 317 318 317 316 316 316 316 316 314 314 315 315 314 314 316 316 316 316 316 316 316 316 316 316 316 316 316 316 316 316 316 316 315 315 315 314 314 313 313 313 313 312 312 312 312 312 312 311 310 309 309 308 308 307 307 306 304 302 302 301 301 301 301 302 302 302 302 302 302 302 302 302 302 302 302 302 302 302 302 302 302 303 303 303 303 302 302 302 302 301 301 300
318 317 317 315 315 316 317 316 316 316 315 316 315 314 314 314 314 314 315 316 316 316 316 316 315 316 316 316 316 316 316 316 316 316 316 316 315 315 315 314 314 314 314 313 313 313 312 312 312 312 312 312 311 310 310 309 308 308 307 306 306 305 304 302 301 301 301 301 302 302 302 302 302 302 301 301 302 302 302 302 302 302 302 302 302 302 302 302 302 302 302 302 302 302 302 301 299
316 315 315 314 314 315 315 315 316 316 315 315 315 315 314 313 314 315 316 316 315 316 316 316 316 315 316 316 316 316 316 316 316 316 316 315 315 315 315 314 314 314 314 313 313 313 312 312 312 312 312 311 311 311 310 309 309 308 307 306 306 305 305 302 301 301 301 301 301 301 302 301 301 301 301 301 301 301 301 301 301 301 301 302 302 302 302 302 302 302 302 302 302 302 301 300 299
315 315 315 315 314 315 315 315 315 314 314 314 315 315 313 313 314 315 316 316 315 315 315 316 316 316 316 316 316 316 316 316 316 316 315 315 316 316 315 315 315 314 314 314 314 313 313 312 312 311 311 311 311 310 310 309 309 308 307 306 305 306 305 304 302 301 301 301 301 301 301 301 301 301 301 301 301 301 301 301 301 301 301 301 301 301 301 302 302 301 301 301 301 301 300 299 298
315 315 316 316 314 315 315 315 315 314 315 315 314 315 315 314 314 315 316 316 315 315 315 315 315 316 316 316 316 316 316 316 316 315 316 316 316 316 316 316 316 314 314 314 313 313 313 312 312 311 311 310 310 310 310 309 309 308 307 306 305 305 305 304 304 303 302 301 301 301 301 301 301 300 301 301 301 301 301 301 301 301 301 301 301 301 301 301 301 301 300 300 300 300 300 298 297
316 314 315 316 315 317 316 314 316 314 314 315 314 316 318 316 314 315 317 316 315 314 314 315 315 315 315 316 316 316 316 316 316 316 316 316 315 316 316 315 315 314 314 313 313 313 313 313 312 311 311 310 310 310 309 309 308 308 307 306 305 305 305 305 305 304 302 300 300 300 300 300 300 300 300 301 301 301 301 301 300 300 300 300 300 300 301 301 300 300 300 300 300 300 299 298 298
316 314 315 317 317 319 317 314 315 315 314 314 315 316 317 317 314 315 317 316 314 314 314 315 315 315 315 316 316 316 316 316 316 316 316 316 315 315 315 315 314 314 313 313 313 313 312 312 312 311 311 310 310 309 309 309 308 308 307 306 305 304 304 305 305 304 303 301 300 300 300 300 300 300 300 300 300 300 300 300 300 300 300 300 300 300 300 300 300 300 299 299 299 299 299 298 297
317 315 318 321 318 318 318 314 313 316 315 312 315 317 316 316 315 316 316 315 314 313 314 315 315 315 316 315 316 316 316 316 316 316 315 315 315 315 314 314 314 314 314 314 313 312 312 312 311 311 310 310 309 309 308 308 308 307 307 306 305 304 304 304 304 304 303 301 300 300 300 300 300 300 300 300 300 300 300 300 300 300 300 300 299 300 300 299 299 299 299 299 299 298 298 297 296
319 316 318 321 319 317 318 317 313 313 315 312 314 317 317 317 315 316 317 315 314 313 313 315 315 316 316 316 316 316 316 316 316 315 315 315 314 314 314 314 314 314 314 313 313 312 312 311 311 311 310 310 309 308 308 308 308 307 307 306 305 304 304 304 304 304 303 301 300 300 300 300 300 300 300 300 300 300 300 300 300 299 299 299 299 299 299 299 299 299 299 298 298 298 297 297 296
319 317 317 318 319 316 318 321 313 311 315 314 313 314 316 317 315 314 316 315 314 313 313 315 316 316 316 317 316 316 316 316 316 316 315 315 314 314 314 314 313 313 313 313 312 312 311 311 311 310 310 309 308 308 307 307 307 306 306 306 305 304 303 303 304 304 303 301 299 299 299 299 299 299 299 299 299 299 299 299 299 299 299 299 299 299 299 299 299 298 298 297 297 296 296 295 295
318 321 320 318 318 317 317 319 315 313 315 315 314 313 313 314 313 312 314 314 313 313 314 315 316 316 316 316 316 316 316 315 316 315 315 315 314 315 314 314 313 313 313 313 312 311 310 310 309 309 309 308 308 307 306 306 306 306 306 305 304 303 303 303 303 303 303 301 299 299 299 299 299 299 299 299 299 299 299 299 299 299 299 299 298 298 298 298 298 298 298 297 296 295 295 294 294
317 320 319 318 317 316 315 316 316 315 316 316 315 314 313 313 313 312 313 313 312 312 313 314 315 316 315 316 315 315 315 315 316 315 315 314 314 314 314 314 313 313 313 312 311 311 310 310 309 309 308 308 307 306 306 305 305 305 305 305 304 304 303 303 303 303 302 301 299 299 298 298 298 299 299 298 298 299 299 299 299 298 298 298 298 298 298 298 298 298 298 297 297 296 294 293 293
316 316 316 316 316 315 315 317 317 315 316 318 316 315 314 314 314 313 312 312 312 311 311 311 313 314 314 315 315 315 315 315 316 315 314 314 314 314 314 313 313 312 312 311 311 311 310 309 309 309 309 308 308 307 306 306 306 306 306 306 306 305 304 303 303 303 302 301 299 298 298 298 298 298 298 298 298 298 298 298 298 298 298 298 298 298 298 298 298 298 298 297 297 297 295 293 292
315 315 315 316 316 316 315 317 317 314 314 316 316 315 314 313 313 313 312 312 312 311 311 311 312 313 314 314 314 315 315 315 315 314 314 313 314 314 314 313 313 313 312 311 311 310 310 309 309 309 309 308 308 308 307 307 307 307 307 307 307 306 305 304 303 303 302 301 299 298 298 298 298 298 298 298 298 298 298 298 298 298 298 298 298 298 298 298 298 298 298 297 297 296 296 294 292
316 316 316 317 317 317 315 316 317 313 314 318 317 314 313 313 313 312 312 312 312 313 313 313 313 313 313 313 314 314 314 314 314 314 314 314 314 314 313 313 313 312 312 311 311 310 309 309 309 309 308 308 308 308 307 307 307 306 306 306 306 306 305 304 303 302 302 301 299 298 298 298 298 298 298 298 298 298 298 298 298 298 298 297 297 297 297 298 297 297 297 297 296 295 295 294 292
316 316 317 317 316 316 315 316 316 313 314 318 317 313 312 312 312 312 311 310 312 313 314 314 314 313 313 314 314 314 314 314 314 314 314 314 314 314 313 313 313 312 312 311 310 310 309 309 308 308 308 308 308 308 307 306 306 305 305 305 304 304 303 303 301 301 300 299 299 298 298 297 298 298 298 298 298 297 298 298 298 297 297 297 297 297 297 297 297 297 297 296 296 295 294 293 292
316 316 316 316 316 317 315 315 317 316 316 316 314 314 313 313 313 314 313 312 312 312 313 313 313 314 314 315 314 315 315 314 314 314 314 314 314 314 314 313 313 312 311 311 310 310 309 309 308 308 308 308 308 307 307 306 305 304 304 303 302 302 301 300 300 300 300 299 299 298 298 297 297 297 298 297 297 297 297 297 297 297 297 297 297 297 297 297 297 297 296 296 295 294 293 292 292
315 316 317 316 316 316 316 317 317 318 321 317 315 316 316 317 317 315 314 314 313 312 312 312 312 313 315 316 316 316 315 314 314 314 314 314 314 314 314 313 313 312 311 311 310 310 309 309 308 308 308 308 307 307 306 306 305 304 304 304 303 302 301 301 302 302 301 301 301 299 298 297 297 297 297 297 297 297 297 297 297 297 297 297 297 297 297 297 297 296 296 295 294 293 292 292 291
314 319 322 319 317 318 318 319 319 323 325 319 317 320 318 317 318 316 317 318 317 316 315 313 311 313 315 316 317 316 315 314 314 314 314 315 314 314 313 313 313 312 311 310 309 309 308 308 308 308 308 307 307 307 306 305 305 305 305 304 305 304 304 304 304 303 303 302 301 300 299 298 297 297 297 297 296 296 297 297 297 296 296 296 296 296 296 296 296 296 296 295 294 292 291 291 291
316 322 327 323 321 322 320 320 322 324 322 317 318 321 318 316 316 317 318 318 319 318 317 315 312 312 315 316 316 316 316 314 314 314 314 314 314 314 314 314 314 312 311 310 309 309 308 308 308 307 307 307 307 307 306 306 305 305 305 304 304 304 304 305 304 303 303 301 300 299 298 297 297 296 296 296 296 296 296 296 296 296 296 296 296 296 296 296 296 296 296 295 293 292 290 290 290
317 320 323 321 320 321 319 318 321 322 319 316 318 318 317 317 315 316 316 315 317 315 315 316 313 312 314 315 316 316 316 316 314 314 313 314 314 314 314 314 313 312 311 310 309 309 308 308 307 307 307 307 307 307 306 306 306 305 305 304 304 304 303 303 302 302 302 301 300 298 297 296 296 296 296 296 295 296 296 296 296 296 296 296 296 296 296 296 296 296 295 294 293 291 290 290 290
317 317 320 323 323 321 318 315 317 320 318 317 319 317 316 318 316 316 315 314 316 314 314 315 313 313 314 314 316 316 316 316 314 314 314 314 314 314 314 313 313 312 310 310 309 309 308 307 307 307 307 307 307 307 306 306 306 305 305 305 304 304 303 302 301 301 300 300 299 298 297 296 296 296 296 296 295 295 295 295 295 295 295 295 295 296 296 296 296 295 295 294 292 291 290 289 289
314 315 319 324 327 324 321 320 317 317 317 318 319 318 316 317 318 317 315 316 317 315 314 314 312 312 313 314 315 316 316 315 315 315 314 315 314 314 314 313 312 311 310 309 308 308 308 307 307 307 307 307 307 306 306 306 306 306 306 305 305 304 303 302 302 301 300 299 298 298 297 296 296 296 296 295 295 295 295 295 295 295 295 295 295 295 295 295 295 295 295 293 292 290 290 289 289
314 320 321 321 326 325 322 321 317 316 317 318 318 318 316 316 317 316 315 316 316 315 316 319 318 313 313 315 315 316 316 315 315 314 315 315 314 314 314 312 312 311 310 309 309 309 308 308 307 307 307 307 307 306 306 305 305 306 306 306 306 305 304 303 303 302 301 300 298 297 297 296 296 296 295 295 295 295 295 295 295 295 295 295 295 295 295 295 295 295 294 293 291 290 290 289 289
315 320 319 318 321 321 319 320 320 319 318 318 316 316 315 315 316 316 316 317 317 315 315 317 318 313 312 316 316 316 316 315 314 315 315 315 314 314 313 312 312 311 310 310 309 309 309 309 308 308 308 308 307 307 306 305 305 306 307 307 307 306 305 304 303 302 301 300 299 298 297 297 296 296 295 295 295 295 294 294 294 295 295 295 295 295 295 295 295 294 294 292 291 290 289 289 288
314 317 318 318 318 317 318 322 324 319 319 320 315 315 316 316 319 318 315 317 316 313 312 313 314 313 314 316 316 316 316 315 315 315 315 315 315 314 313 312 312 312 311 311 311 311 311 310 309 309 309 308 308 307 307 306 305 306 307 307 306 306 306 305 304 303 301 300 299 298 298 297 297 297 296 296 296 295 294 294 294 294 294 294 294 294 295 294 294 294 293 291 290 289 289 288 288
313 315 317 317 321 324 321 323 322 318 323 323 314 317 321 317 319 320 316 314 312 310 312 314 314 314 315 315 315 315 316 316 315 316 316 315 315 314 313 312 312 313 313 312 313 312 311 311 310 310 310 309 309 308 307 306 306 306 306 306 305 305 306 306 304 303 302 300 299 298 297 297 297 296 296 296 295 294 294 294 294 294 294 294 294 294 294 294 294 294 292 290 289 289 288 288 288
314 316 316 313 320 324 318 320 320 316 321 322 315 320 324 316 315 317 315 314 313 311 311 311 311 313 314 313 314 315 316 317 316 316 315 314 314 313 313 312 313 314 314 313 314 313 313 312 312 312 311 310 310 309 308 307 306 305 306 306 305 304 304 305 305 304 302 301 299 298 297 296 296 296 295 295 294 294 293 293 293 294 294 294 294 294 294 294 294 293 291 290 289 288 288 288 288
315 315 315 314 318 319 316 321 322 316 316 318 316 319 320 316 315 316 314 315 315 313 312 310 309 311 312 312 313 314 316 316 316 315 314 313 313 312 312 312 313 314 314 314 314 314 314 314 313 312 311 310 310 309 309 308 306 305 305 305 305 304 304 305 306 306 304 301 299 297 296 296 295 295 294 294 293 293 293 293 293 293 294 294 294 294 293 293 293 292 290 289 289 288 288 288 287
316 317 315 314 317 319 319 323 323 318 317 318 316 316 315 315 317 318 316 315 315 316 316 314 311 309 310 311 311 314 315 315 314 314 313 313 313 312 312 312 313 313 314 314 314 314 314 314 313 313 312 311 310 310 308 307 306 306 305 305 305 305 304 304 305 305 304 302 299 297 296 295 294 294 294 293 293 293 292 293 293 293 293 293 293 293 293 293 292 291 289 289 288 288 288 288 287
314 317 315 316 318 320 320 320 320 318 317 317 316 316 315 314 315 315 316 315 316 317 316 315 313 311 310 311 311 312 314 314 314 314 313 313 312 313 312 312 312 313 313 313 314 314 314 314 313 312 312 311 310 309 308 307 306 306 306 305 305 305 304 302 302 303 303 302 301 299 297 295 294 293 293 293 293 292 292 292 293 293 293 293 293 293 293 293 292 290 289 288 288 288 287 287 287
312 313 314 315 316 319 321 319 318 318 317 316 317 316 315 315 316 315 315 316 317 316 314 314 313 311 310 311 312 312 313 314 314 313 313 313 312 312 312 312 312 312 312 312 313 313 314 313 313 313 312 311 310 309 308 308 307 306 305 304 304 303 303 302 301 301 302 302 302 300 298 296 294 293 293 293 292 292 292 292 292 293 293 293 293 293 292 292 291 289 289 288 288 288 287 287 287
314 314 315 314 312 317 319 316 316 317 315 315 315 315 315 315 317 316 315 317 319 318 318 317 312 310 310 311 311 312 313 314 314 313 313 312 312 312 312 312 312 311 311 311 311 312 313 313 313 312 312 311 310 310 308 308 307 306 305 304 304 303 302 302 301 299 300 300 300 300 298 296 294 294 293 293 292 292 292 292 292 292 293 293 293 292 292 292 290 289 288 288 287 287 287 287 286
316 315 315 314 313 314 316 315 316 316 314 314 315 315 315 314 316 315 313 317 322 319 319 319 313 309 310 311 311 312 313 313 313 312 312 312 312 312 312 311 311 311 311 312 311 311 312 312 312 312 312 311 311 310 309 309 308 306 305 304 303 302 301 301 301 299 298 298 298 298 298 297 295 294 293 292 292 292 292 292 292 292 292 292 292 292 292 291 290 289 288 288 287 287 287 287 286
Wind_Speed
4 4 4 3 2 2 2 3 1 2 2 2 4 2 3 3 2 1 1 1 2 2 7 6 4 5 5 5 7 8 5 3 4 3 4 3 9 20 22 22 21 20 20 20 19 17 15 12 10 10 9 10 9 8 7 6 5 5 4 4 4 4 4 3 4 4 4 4 5 5 5 5 5 6 6 7 7 7 8 8 7 7 7 7 7 7 7 6 6 6 5 5 7 8 9 10 10
4 4 5 5 5 2 2 3 1 3 3 3 4 3 4 3 2 2 4 3 3 6 8 7 6 7 6 7 9 6 4 3 3 4 6 6 13 22 22 21 20 20 20 20 19 16 14 12 10 9 8 8 8 8 7 6 5 4 4 4 4 3 4 4 4 4 5 5 5 5 6 6 6 7 7 8 9 9 10 10 10 9 8 8 8 7 6 6 6 6 7 7 9 9 10 11 11
4 5 6 6 5 2 3 3 2 1 2 3 5 4 2 2 1 1 2 4 9 10 8 6 5 4 3 4 4 2 1 4 4 5 7 9 14 20 22 21 20 19 19 19 18 16 14 13 10 8 8 8 7 7 6 6 5 5 4 3 3 2 2 2 2 2 3 3 4 5 6 6 7 8 9 10 10 11 11 12 12 12 11 9 9 8 8 9 10 10 10 11 11 11 12 11 12
6 5 5 5 4 3 2 2 2 3 1 4 3 5 3 5 6 3 5 7 9 8 6 6 4 2 1 1 2 1 4 7 6 5 5 8 11 16 20 21 20 17 17 18 17 16 14 13 10 9 8 7 6 5 5 5 5 5 5 4 4 3 3 2 2 2 1 1 2 3 4 5 6 7 8 9 10 11 11 12 12 12 11 11 10 10 10 10 11 11 11 12 12 13 13 13 13
6 5 5 4 3 2 2 1 1 2 3 4 2 6 4 6 7 5 6 7 6 5 6 7 3 2 2 3 3 1 6 7 6 6 4 7 11 15 19 21 20 18 17 17 16 16 14 12 10 9 8 6 5 5 5 5 6 6 5 5 5 4 4 3 3 2 2 1 1 2 3 4 4 5 6 7 8 9 9 10 10 10 10 10 10 10 11 11 12 12 12 12 13 13 14 14 15
4 5 5 4 3 1 2 1 2 2 5 5 3 5 5 6 9 8 7 7 5 5 6 8 5 4 2 3 6 5 7 6 5 6 4 6 11 15 19 21 20 18 18 17 16 16 14 13 11 10 8 7 6 6 7 7 7 7 7 6 6 5 4 3 3 2 2 2 1 2 2 3 4 5 5 6 7 7 8 8 9 9 9 9 9 10 10 11 12 12 13 13 14 14 15 15 16
3 4 3 3 1 1 2 3 4 4 6 5 5 5 6 8 13 12 8 5 4 5 6 7 7 6 2 3 6 8 10 8 6 5 4 6 9 14 18 20 19 18 18 17 17 16 15 14 12 11 9 7 8 9 9 9 8 8 7 6 6 5 4 3 3 2 2 2 2 2 2 3 4 4 5 5 6 6 7 7 8 8 9 9 9 10 10 10 11 11 12 13 13 14 15 16 16
4 3 3 3 1 2 1 3 4 4 5 4 4 4 10 14 17 12 6 5 3 6 7 7 9 5 2 6 5 8 13 12 10 8 6 7 8 12 16 19 18 17 18 19 18 17 16 15 14 13 10 9 10 10 10 10 9 8 7 6 5 4 4 3 3 2 2 2 1 1 1 2 3 3 4 5 5 6 6 6 6 7 8 8 9 10 10 11 11 11 12 12 13 13 14 15 15
4 2 2 2 1 2 2 4 4 4 6 5 2 4 13 19 17 10 6 4 4 6 9 10 11 5 3 8 7 9 13 13 13 12 11 9 10 11 14 17 17 18 19 20 20 18 17 17 16 14 11 11 11 11 10 10 9 8 6 5 4 3 3 3 3 2 2 1 1 0 1 1 2 3 3 4 5 5 5 6 6 6 7 7 7 8 9 9 10 10 11 12 12 13 13 14 15
2 1 1 2 1 2 4 3 4 4 6 6 5 7 14 17 14 10 8 5 6 7 9 12 10 6 3 6 8 9 12 12 13 12 12 11 11 13 14 16 17 19 20 20 20 19 19 18 16 14 12 11 11 10 10 9 8 7 6 5 4 4 4 3 3 2 2 1 1 1 2 2 2 3 3 4 4 5 5 5 5 5 6 6 6 6 6 7 7 7 8 8 9 10 10 11 12
1 0 1 2 1 2 4 4 4 5 6 3 3 8 13 14 10 9 9 5 8 9 11 12 7 9 5 3 7 8 11 11 11 11 11 12 13 14 15 16 17 19 20 20 21 20 20 18 16 14 12 10 10 10 10 9 7 7 6 5 5 4 4 4 4 3 2 2 2 2 2 2 3 3 3 4 4 4 4 4 4 4 4 4 5 5 5 6 6 6 6 6 7 7 8 8 8
0 1 2 2 2 3 4 4 5 6 6 3 2 6 9 10 6 5 8 6 9 10 13 15 6 8 6 3 8 11 12 12 12 11 11 13 13 14 16 17 17 20 22 22 22 21 20 18 17 14 12 10 10 11 10 9 8 7 6 6 6 5 5 5 4 3 2 2 2 2 2 3 3 3 3 3 3 3 3 3 3 4 4 4 4 4 5 5 6 6 6 7 7 8 8 8 8
2 0 4 1 3 3 3 4 6 6 5 3 2 5 7 8 6 7 7 6 12 10 10 17 9 6 6 4 8 14 14 13 14 14 13 13 14 15 16 17 17 20 22 23 23 22 21 19 17 15 13 12 12 12 11 10 9 8 7 6 6 6 6 6 5 4 2 1 1 1 2 2 2 2 3 3 3 3 3 3 3 4 4 4 4 4 5 5 5 5 6 7 7 8 8 9 9
2 2 2 2 2 1 3 3 5 4 4 4 2 6 7 5 5 8 7 4 11 11 8 15 14 7 6 5 8 16 15 14 15 15 14 14 15 16 17 17 18 20 22 23 23 22 21 20 18 17 15 14 14 14 13 11 10 9 8 7 7 7 7 6 5 4 2 1 1 1 2 2 2 2 3 3 3 3 4 4 4 5 5 5 5 5 5 5 6 6 6 6 6 7 8 8 9
4 5 1 1 3 3 3 3 5 4 4 5 5 7 7 4 4 7 8 5 8 11 6 11 17 7 5 8 10 16 15 14 16 15 15 16 16 17 18 18 19 21 22 24 24 23 22 21 20 19 17 16 16 16 14 13 11 10 9 8 8 7 7 7 5 4 2 1 2 3 3 3 3 3 3 4 4 5 5 6 6 6 6 7 7 8 8 8 8 9 8 8 8 8 8 8 9
5 4 2 1 3 2 3 3 3 4 5 4 7 7 4 4 6 7 8 8 6 9 9 13 19 12 7 10 11 11 12 14 15 16 17 17 18 18 19 20 21 22 23 25 26 25 24 24 22 21 19 18 18 18 16 14 13 11 10 9 8 8 8 7 5 3 2 3 4 4 5 5 5 5 5 5 5 5 6 6 7 7 7 8 8 9 9 10 10 10 10 10 10 10 10 9 9
4 0 2 2 3 2 3 3 1 3 5 4 6 7 4 3 7 8 9 11 10 9 12 13 18 19 16 15 14 11 11 13 14 17 18 18 18 19 20 21 22 24 24 26 27 27 27 26 25 24 22 21 20 20 18 16 15 13 11 10 10 9 9 8 7 5 5 4 5 5 5 6 6 6 6 6 6 7 7 7 8 8 8 9 9 9 10 10 11 11 11 11 12 11 11 11 10
3 2 2 3 3 4 5 4 4 2 2 3 6 8 6 3 6 8 8 11 14 13 15 16 16 19 21 21 20 18 16 16 17 18 19 20 20 20 21 21 23 24 25 27 28 28 28 28 27 26 25 24 22 22 20 18 17 15 13 13 12 11 11 10 9 8 7 6 6 6 7 8 8 7 7 7 7 7 8 8 8 8 8 8 8 9 9 10 10 11 12 12 12 13 12 12 12
6 3 2 4 5 5 5 5 5 1 1 5 6 8 8 5 6 6 5 8 11 11 15 18 19 21 23 25 24 23 22 21 22 22 23 24 24 23 22 22 23 24 25 26 27 28 28 29 29 28 27 26 24 23 22 21 19 17 16 15 14 14 13 13 12 10 9 8 8 8 8 9 9 8 8 7 7 7 7 7 6 6 6 6 7 8 8 9 10 10 11 12 13 13 13 13 13
8 5 2 7 7 6 11 10 5 3 3 3 2 5 8 8 7 6 5 8 8 10 15 15 20 27 27 27 27 26 26 25 26 26 27 28 28 27 25 25 25 24 24 24 25 28 28 29 29 29 29 27 25 25 24 23 21 19 18 17 16 15 15 15 13 12 11 10 9 9 9 10 10 9 8 8 7 7 6 6 6 5 5 6 7 7 8 9 9 10 11 12 13 14 14 14 14
6 7 5 7 5 4 13 14 9 7 5 4 3 2 6 9 9 9 7 5 7 15 22 21 23 28 28 30 30 29 29 28 28 29 30 30 30 30 29 28 26 24 23 25 27 28 28 29 29 30 29 28 27 26 25 25 23 22 20 19 18 17 17 17 15 14 12 11 11 11 11 11 11 10 9 8 8 7 7 7 7 6 7 7 7 8 8 9 9 10 11 12 13 14 14 14 14
4 8 12 14 9 5 14 16 12 10 7 6 5 3 7 8 9 15 11 7 13 17 18 19 21 22 24 28 30 31 31 30 30 30 30 30 30 31 30 29 27 26 26 28 29 28 28 29 30 30 30 30 28 28 27 26 25 24 23 21 20 19 19 18 17 15 14 13 13 12 12 12 12 12 10 10 9 9 9 9 9 8 9 9 9 9 10 10 10 10 11 12 12 13 14 14 15
7 8 12 17 16 10 16 18 15 14 10 7 6 6 9 7 9 17 18 21 29 26 16 13 13 14 17 23 28 32 33 33 32 30 29 28 28 28 28 29 28 28 28 28 29 29 29 30 31 31 31 31 30 29 29 28 27 26 24 23 22 21 20 20 18 17 16 15 14 14 14 13 14 13 12 11 11 11 11 11 10 10 10 10 10 10 11 11 11 11 12 12 13 13 14 14 15
11 7 7 14 18 16 20 20 17 16 12 12 11 9 9 9 10 12 21 33 38 32 26 22 20 20 20 20 25 29 32 34 33 31 29 28 27 26 25 26 27 27 29 29 30 30 30 31 31 32 32 32 31 31 31 30 29 28 27 25 24 22 22 22 20 19 18 17 16 15 15 15 15 15 14 13 13 13 12 12 12 11 11 11 11 11 11 11 12 12 13 13 14 14 14 14 14
9 8 8 12 15 17 19 18 19 18 16 17 13 12 15 17 13 13 28 40 39 34 32 31 27 27 28 27 27 27 30 33 33 32 31 31 30 28 28 28 28 29 30 30 31 31 31 31 31 32 32 32 32 33 32 31 31 30 29 28 26 25 24 23 22 21 20 18 17 17 16 17 17 16 15 15 14 14 14 13 12 11 11 11 11 11 12 12 12 13 14 14 15 15 15 14 13
7 9 10 11 14 17 19 21 24 21 19 16 10 14 19 19 13 17 38 44 38 35 33 32 29 28 30 32 33 31 32 34 34 35 34 34 32 32 32 31 32 32 32 31 31 31 31 31 32 32 32 32 33 34 33 32 32 32 30 29 27 27 26 25 24 22 21 20 19 18 18 18 18 17 16 15 15 15 14 14 13 12 12 11 11 11 11 12 13 14 15 15 16 16 16 16 15
6 9 12 15 17 20 21 22 27 24 20 18 13 12 16 13 5 13 39 37 24 25 25 26 26 29 32 33 34 34 35 36 36 36 36 36 36 37 36 35 36 35 33 33 33 32 32 32 32 31 31 32 33 35 35 34 33 32 31 30 29 28 28 27 26 24 23 21 20 20 19 19 19 18 17 16 16 16 15 14 14 12 12 12 11 11 12 13 14 15 16 16 17 17 17 17 16
8 10 13 18 16 20 24 21 26 20 14 21 17 10 12 6 5 19 43 34 17 19 21 21 21 26 29 31 35 35 37 37 36 37 38 38 38 38 37 37 37 37 36 35 33 33 34 34 33 32 32 31 33 35 35 35 34 33 32 31 30 29 29 28 27 26 24 22 22 21 21 21 20 19 18 17 17 16 16 15 14 13 12 11 11 11 12 14 15 16 16 16 17 17 17 17 17
10 7 7 15 9 13 24 21 23 15 7 15 13 4 11 6 13 34 46 37 27 26 27 27 25 26 28 29 33 35 37 37 37 39 39 39 37 37 37 36 37 37 36 35 35 35 34 34 34 33 33 32 33 34 34 36 35 33 32 32 31 31 30 29 28 27 25 24 23 22 22 22 21 21 19 18 18 17 17 16 14 13 12 11 11 12 12 14 15 16 16 15 16 16 17 17 17
10 3 2 9 7 8 19 15 15 12 7 13 14 1 11 10 21 38 40 35 32 30 31 33 31 31 31 31 32 34 36 37 39 40 39 39 37 37 37 36 37 37 37 37 37 36 35 35 35 35 34 33 33 33 34 35 36 34 33 33 32 31 30 29 29 27 26 25 24 24 23 22 22 22 20 19 19 18 17 16 15 14 13 12 12 12 13 15 16 16 16 16 16 16 17 18 18
4 2 2 4 3 7 12 6 5 4 5 17 16 2 11 12 20 33 34 30 27 28 33 34 33 34 34 34 35 36 36 37 40 40 40 41 38 37 37 36 38 38 38 39 38 36 36 36 36 36 35 34 33 33 33 35 36 35 34 33 33 32 31 30 29 27 26 26 25 25 24 23 23 23 21 20 19 19 18 17 16 14 13 12 12 12 14 15 17 17 17 17 16 16 17 18 19
1 1 5 2 4 7 11 7 7 6 5 16 14 3 12 14 19 31 32 27 25 27 32 33 32 34 34 36 37 37 38 37 40 41 42 42 39 38 37 37 38 38 39 39 38 38 38 37 37 38 37 35 34 33 33 34 35 36 35 34 33 32 31 30 29 28 27 26 26 26 25 25 25 24 22 21 20 20 19 18 16 15 13 12 12 13 14 16 17 18 18 17 17 17 17 18 19
2 4 6 5 5 5 7 7 6 10 6 9 10 5 9 10 13 23 23 19 22 24 28 31 32 33 34 36 37 38 39 40 42 43 43 43 40 39 38 37 37 38 39 39 40 40 39 39 38 39 38 36 34 33 33 33 35 36 35 34 33 33 32 31 30 28 28 28 27 27 27 26 26 24 23 22 21 20 19 18 17 15 13 12 12 13 14 16 18 18 18 17 17 18 18 19 20
4 3 5 6 7 5 5 7 1 8 8 7 10 7 11 13 11 18 18 14 15 18 24 29 30 32 33 35 37 39 41 43 45 46 45 43 40 39 39 38 37 37 38 40 40 40 40 40 39 39 38 37 35 34 33 33 34 35 35 35 34 33 33 32 31 30 29 29 29 28 28 27 26 25 24 23 22 21 20 18 17 15 13 13 13 14 15 16 18 18 18 18 18 18 19 20 22
4 4 4 5 7 6 9 8 1 7 6 7 8 8 15 19 15 22 29 25 18 17 22 26 29 32 34 36 39 41 42 44 49 49 45 42 39 38 39 38 37 37 38 40 40 40 41 41 41 39 38 38 36 35 33 33 35 36 36 36 35 35 35 34 32 31 30 30 30 29 29 28 27 26 24 23 22 21 20 19 17 15 14 14 14 14 15 16 17 18 18 17 17 18 18 20 23
6 7 6 6 7 7 11 11 5 8 5 6 10 11 15 19 18 20 31 33 26 23 23 25 30 33 35 38 42 42 42 46 51 49 44 40 37 37 39 38 36 37 38 39 40 41 42 43 42 40 39 39 37 36 36 35 36 37 39 39 38 38 37 36 34 32 31 31 31 30 30 29 28 26 25 24 23 22 21 20 19 17 16 15 14 14 15 17 18 18 18 18 17 17 18 19 22
9 9 8 9 8 10 13 11 7 8 6 7 12 15 15 19 19 17 24 25 20 20 21 24 30 33 36 40 43 43 44 49 50 46 42 37 34 34 37 37 35 37 39 40 41 42 43 44 43 41 40 39 39 39 38 37 38 39 40 40 40 39 38 37 36 34 33 32 32 31 31 30 29 27 26 25 24 23 22 22 20 18 17 15 14 15 16 18 19 19 19 19 18 17 18 20 22
11 9 9 10 7 11 14 10 7 6 5 8 11 14 15 17 18 16 17 14 13 20 19 22 29 32 36 40 43 45 47 49 47 43 40 34 31 31 35 36 35 38 40 40 42 42 43 43 43 41 40 40 40 40 39 38 38 38 38 37 38 38 38 38 37 35 33 33 33 32 32 32 30 28 27 26 25 24 24 23 21 19 17 16 15 15 17 18 19 19 19 19 19 18 17 19 22
9 8 8 8 6 10 12 8 7 4 5 8 9 11 13 15 16 15 13 12 17 28 28 29 33 30 34 40 43 45 45 44 43 40 37 32 29 29 32 34 34 37 39 40 41 41 42 43 42 42 41 41 40 39 39 38 37 37 36 35 35 36 37 37 36 34 33 33 33 34 33 33 31 29 28 27 26 26 26 24 22 20 18 16 16 16 18 19 19 20 20 19 19 18 17 17 20
8 9 8 9 7 8 10 6 3 3 4 6 7 9 9 10 14 13 17 21 24 32 35 37 38 33 37 45 45 45 44 41 39 36 32 29 27 28 30 31 33 36 39 40 40 41 42 43 42 42 41 40 39 39 38 38 37 36 36 36 35 35 35 35 35 35 34 35 35 35 35 33 32 30 29 28 28 27 27 25 23 21 18 17 17 17 18 18 19 20 20 20 19 18 17 17 18
11 11 9 11 10 11 12 7 3 3 4 4 5 9 8 9 15 15 15 20 21 28 31 33 39 39 41 48 46 44 46 43 39 34 31 29 28 29 29 30 32 36 38 40 40 40 41 41 41 41 40 40 39 39 38 38 38 38 38 38 37 37 36 36 37 38 38 37 37 36 35 34 33 32 30 29 29 28 28 26 24 22 19 18 17 17 17 18 19 20 20 20 19 18 17 18 19
12 10 12 15 14 13 13 8 6 5 6 3 1 8 9 7 14 14 9 9 11 17 19 23 34 38 38 43 43 42 42 39 36 33 31 30 29 28 29 30 32 35 37 37 37 38 39 39 39 39 39 39 39 39 39 39 40 40 40 41 42 42 42 42 42 41 40 39 38 37 36 35 34 33 31 30 30 30 29 27 25 23 20 19 18 17 17 18 19 20 20 20 19 19 18 18 19
11 7 11 14 12 10 10 6 3 4 6 4 3 2 9 5 7 10 7 7 10 11 11 16 26 31 33 39 40 39 38 32 29 28 27 28 28 28 30 31 32 34 35 34 35 36 37 37 37 38 38 38 38 39 40 40 41 41 41 42 43 43 44 43 42 41 39 37 36 36 36 36 35 33 32 31 31 31 30 28 26 23 21 19 18 17 18 18 19 20 20 19 19 19 20 20 20
8 3 8 9 8 8 7 4 5 4 4 5 2 3 7 11 6 10 11 11 11 11 9 12 18 27 34 37 38 38 37 32 27 25 26 27 28 28 29 29 30 31 31 32 34 35 35 36 36 36 37 37 38 39 39 40 40 41 41 42 43 43 43 41 39 38 37 37 36 36 36 37 36 34 33 32 32 31 30 29 26 24 22 19 18 18 18 18 19 20 20 19 19 19 21 22 22
5 2 5 6 5 5 2 3 4 1 4 6 4 6 4 13 8 9 11 11 10 12 13 12 15 25 34 36 38 36 34 34 30 27 26 26 26 26 26 26 27 28 29 31 32 32 33 34 35 36 37 38 38 38 39 39 39 39 40 41 41 42 41 40 39 37 37 37 36 37 37 37 36 35 34 33 33 32 31 29 27 24 22 20 19 18 18 18 19 20 20 19 19 20 21 23 23
4 5 3 4 3 2 4 1 1 3 5 7 5 7 4 13 8 6 6 7 9 11 12 13 16 25 33 34 35 33 30 31 30 27 26 25 23 22 23 24 26 27 27 29 30 31 32 34 35 36 37 38 38 38 39 38 38 38 38 39 39 40 40 40 40 39 38 38 37 38 39 38 37 35 34 34 33 33 32 30 27 25 22 21 20 19 18 19 20 20 20 19 19 20 21 23 24
2 6 4 6 5 4 4 1 4 3 8 6 9 11 8 9 5 6 6 6 10 10 8 10 12 19 29 31 30 28 27 27 26 24 24 22 20 20 22 24 25 26 26 28 30 31 32 34 35 36 37 37 38 38 39 39 37 36 36 36 37 38 39 39 40 41 41 40 40 40 40 39 37 36 35 35 34 34 32 30 28 25 23 21 20 19 19 20 20 20 20 20 20 21 22 23 24
4 4 4 4 5 4 5 4 5 2 10 5 12 14 12 10 6 3 4 5 9 10 8 10 10 15 26 30 26 24 24 24 22 21 21 20 20 20 21 23 24 25 26 29 31 31 33 34 35 37 37 38 38 39 39 39 38 36 35 35 35 36 37 38 40 41 42 42 42 42 41 40 38 37 37 36 35 34 33 31 29 26 24 22 21 20 20 20 21 21 20 20 21 22 23 24 23
4 4 5 1 4 3 3 4 1 4 8 5 10 9 8 13 7 2 6 7 7 8 9 13 12 15 25 28 24 22 22 23 22 21 20 21 21 19 19 21 23 25 27 29 30 31 33 35 36 37 37 37 38 39 39 40 39 36 35 35 34 34 35 37 39 41 42 43 43 43 42 41 40 40 39 38 36 35 33 32 29 27 25 23 22 21 21 21 21 21 21 21 21 22 23 24 22
6 6 6 5 3 1 2 4 3 5 7 5 5 6 5 9 4 8 13 12 12 12 15 20 20 21 26 25 23 22 21 22 22 22 22 22 21 18 17 19 22 26 28 29 30 32 34 35 37 37 37 37 38 39 40 41 40 37 36 36 35 35 35 36 38 40 42 43 44 44 43 42 41 40 39 38 36 35 34 32 29 27 25 23 22 21 21 22 21 21 21 22 22 23 23 23 22
7 5 6 5 5 5 4 5 6 5 6 5 3 5 4 4 2 9 12 12 12 16 24 27 26 28 26 22 22 20 19 20 20 21 21 21 18 17 18 18 20 25 28 30 31 33 35 36 37 37 37 37 38 39 40 41 40 38 37 38 38 37 35 35 38 40 41 43 44 44 43 42 40 39 38 36 35 34 34 32 30 28 26 24 23 22 22 22 22 22 22 22 22 23 23 22 21
4 4 4 4 5 6 5 5 6 2 3 6 3 4 6 4 6 8 7 9 9 14 21 20 22 28 27 24 23 20 19 19 20 20 19 18 17 16 18 18 19 24 28 30 32 34 36 36 37 37 36 37 38 39 39 40 40 40 39 39 40 40 38 36 36 38 41 43 44 43 43 42 40 38 37 35 35 34 34 33 31 28 26 24 23 22 22 22 22 22 22 23 23 23 23 22 21
2 4 4 4 3 6 5 6 3 2 4 7 4 5 6 5 7 7 6 8 7 7 10 10 17 26 27 28 26 21 20 20 20 19 17 17 17 16 18 18 19 22 25 28 31 34 36 36 37 37 37 38 39 39 39 40 41 42 41 40 40 42 42 38 34 35 39 42 43 43 42 41 40 39 37 36 35 35 34 33 31 29 27 25 24 23 23 22 22 23 23 23 23 23 23 21 20
6 4 6 2 3 2 3 2 3 1 6 7 6 10 8 6 8 4 4 2 5 7 8 9 15 21 24 28 26 20 20 21 20 18 16 17 17 17 18 19 20 21 22 25 30 34 36 36 37 37 38 39 39 40 40 41 42 43 42 42 41 41 42 42 38 37 38 40 42 43 43 43 42 40 39 38 37 36 35 33 31 29 27 25 24 23 23 23 23 23 24 23 23 23 23 21 20
6 3 2 3 1 2 2 3 3 5 7 7 10 13 9 7 9 5 3 5 8 11 11 11 13 14 19 26 24 20 21 22 20 18 17 17 16 18 19 19 20 21 22 25 31 36 37 37 37 38 39 39 40 41 42 42 43 43 43 44 43 43 44 45 44 42 40 40 41 43 44 44 43 42 41 39 38 37 35 34 32 29 27 26 25 24 23 23 23 24 24 23 24 23 22 21 20
1 1 2 1 3 4 4 4 3 5 9 8 10 11 10 9 7 4 7 9 9 9 9 9 11 13 20 27 28 26 24 22 20 17 16 16 16 17 19 19 19 20 21 24 31 36 37 37 38 39 41 42 42 43 43 43 44 45 46 46 46 47 46 47 48 46 44 41 41 42 44 45 45 44 43 41 39 37 36 34 32 30 28 27 25 24 24 24 24 24 24 24 24 23 22 21 20
3 2 4 3 2 2 1 2 2 4 7 7 8 9 10 9 3 3 6 7 8 9 9 9 11 16 25 29 30 28 24 22 19 16 15 16 17 18 19 21 21 22 23 25 31 36 37 38 39 39 41 44 45 45 45 45 45 46 48 48 48 49 48 48 49 49 47 45 43 43 43 45 46 45 44 42 40 38 37 35 33 31 29 27 26 25 24 25 25 25 25 24 23 22 22 21 20
7 7 7 6 6 3 3 6 4 4 5 5 7 8 10 10 2 3 2 4 6 8 9 9 12 20 28 27 23 22 21 19 16 16 18 18 17 18 20 23 25 25 24 27 33 37 37 37 37 39 42 43 44 46 47 47 47 48 50 50 50 51 51 50 51 51 51 48 47 45 44 45 46 45 44 43 41 39 37 36 34 32 30 28 27 26 25 26 25 25 25 24 23 22 22 21 21
Wind_Direction
203 208 204 178 189 154 69 28 2 323 68 274 274 225 263 248 199 95 78 105 113 70 91 104 81 86 91 99 134 127 86 141 172 136 179 194 173 183 180 182 185 181 186 192 194 200 204 204 200 196 195 194 194 198 209 217 223 228 227 226 227 231 237 242 249 261 270 281 288 293 302 304 305 302 299 300 305 312 319 322 325 327 326 323 324 328 329 327 329 333 329 331 329 325 323 324 330
175 188 190 169 152 106 24 54 66 338 37 308 282 199 238 310 43 119 191 183 136 136 119 112 96 92 88 97 132 129 55 91 168 156 155 151 170 183 185 187 186 185 188 191 194 197 201 203 201 198 193 190 188 189 194 197 203 215 219 222 227 235 243 246 248 250 255 263 268 273 278 282 285 287 288 291 295 298 300 301 304 306 307 305 303 305 309 308 311 320 316 316 317 317 318 319 325
152 179 185 161 135 51 2 67 99 58 51 279 276 248 217 78 135 161 169 142 130 137 136 132 118 105 80 86 124 157 161 142 164 165 159 164 174 183 188 190 189 189 191 189 192 195 198 199 197 193 190 188 184 185 186 188 193 198 200 200 197 199 211 224 236 241 251 257 263 268 271 276 276 280 282 284 287 287 288 289 292 294 295 293 289 286 287 289 293 298 300 305 308 309 310 311 313
148 173 177 148 110 35 39 78 155 151 213 242 263 275 219 150 179 170 115 124 132 139 141 132 116 131 103 121 128 72 163 172 180 177 173 169 174 188 189 190 193 195 193 188 190 194 195 194 192 194 197 198 200 199 199 201 201 202 200 197 192 187 191 194 196 209 234 248 260 273 277 280 280 281 280 280 281 280 281 281 283 284 285 283 279 277 279 281 284 287 290 293 296 299 300 301 301
146 155 153 121 82 31 72 86 174 145 227 211 246 273 219 161 172 171 131 129 143 145 137 138 134 175 186 205 194 194 174 180 197 197 191 170 173 189 190 191 196 200 198 192 190 193 197 196 195 201 203 203 209 203 195 191 187 186 181 179 175 174 174 171 172 177 189 217 238 261 271 273 275 275 275 276 276 275 276 276 277 277 277 275 272 270 270 271 273 277 279 281 283 285 287 289 291
141 142 135 95 64 21 83 270 277 254 242 192 236 259 194 169 163 151 133 131 147 148 142 149 146 143 165 212 207 211 182 182 204 194 185 176 179 189 193 195 199 205 204 196 193 197 199 201 202 204 201 198 196 183 176 170 167 163 159 157 154 153 151 151 152 156 167 185 209 234 253 261 265 268 269 269 270 271 271 271 272 272 272 273 271 270 267 267 268 270 273 275 276 276 278 279 281
140 131 107 67 45 20 113 225 243 244 253 197 203 218 173 171 157 140 133 132 148 168 155 158 153 132 154 203 201 211 200 208 210 186 173 177 185 192 197 201 207 209 205 198 197 200 200 204 206 207 202 196 186 177 172 168 164 158 154 152 151 151 151 155 157 165 178 186 206 229 247 260 268 272 277 277 278 277 274 273 270 269 269 270 272 272 272 271 271 270 271 271 272 273 273 274 275
130 104 69 68 40 17 129 247 251 211 253 237 204 184 166 164 156 145 154 164 173 192 172 171 173 155 236 198 189 207 209 223 224 226 217 202 202 198 202 209 216 213 204 197 199 202 202 206 207 208 203 196 189 179 174 170 165 159 156 154 156 158 159 162 165 173 177 186 198 225 260 275 288 292 296 296 297 295 292 289 283 280 275 275 275 275 276 276 278 277 277 276 275 275 275 275 276
115 81 78 84 59 335 282 275 268 232 252 250 238 184 167 163 160 150 162 179 167 190 188 179 179 178 225 200 207 210 210 225 227 235 233 224 220 209 212 216 221 219 206 198 202 204 205 209 209 209 204 198 191 181 175 169 164 159 155 153 155 153 156 158 158 162 158 161 145 137 330 328 324 325 322 321 317 315 313 309 306 303 299 296 292 289 288 287 288 287 287 286 284 282 281 281 281
103 79 98 69 100 307 298 271 252 268 260 220 203 182 163 163 165 158 159 179 178 179 191 185 190 202 197 201 217 221 217 224 225 231 229 225 223 217 220 221 223 220 213 205 205 207 209 212 211 211 207 200 192 184 177 170 164 157 151 148 147 146 150 148 145 140 128 109 73 57 28 14 360 357 348 346 340 334 331 327 325 322 322 321 320 318 317 316 315 313 310 305 302 299 295 292 289
67 285 126 53 66 277 264 258 257 274 281 245 202 175 162 166 162 166 164 167 185 171 173 176 200 216 208 233 228 230 224 221 223 227 225 221 222 222 224 225 224 219 215 212 211 212 214 215 213 213 208 203 195 188 182 176 169 159 154 148 147 147 148 145 142 132 118 92 63 48 31 26 16 13 5 360 355 351 350 349 347 344 346 345 346 346 345 347 346 346 343 338 333 328 325 319 313
359 294 94 102 206 226 227 263 273 277 297 319 229 185 169 173 159 183 180 167 179 168 178 182 194 203 196 255 234 236 232 223 220 221 222 222 225 227 228 229 227 219 214 213 216 216 218 218 215 214 210 206 201 195 190 184 177 168 161 155 153 153 152 152 148 142 127 92 56 36 24 23 20 20 18 14 9 6 3 1 2 360 359 359 359 357 356 355 353 352 349 348 345 342 341 336 334
237 269 90 161 213 208 256 283 279 295 310 289 227 188 170 180 191 210 198 181 175 168 199 201 197 189 197 234 229 234 232 226 223 222 223 223 229 229 230 230 227 222 216 215 219 220 221 220 217 215 212 208 206 201 195 190 185 176 169 165 163 161 161 162 161 157 146 119 54 18 8 7 12 18 20 23 23 19 15 10 6 3 2 1 358 357 357 354 350 347 345 343 341 341 339 336 335
256 317 96 226 264 229 253 272 286 301 291 266 186 165 173 191 220 216 207 199 188 192 228 215 203 201 219 215 226 234 228 224 225 223 222 224 228 229 230 230 228 224 220 219 221 224 224 223 220 219 215 211 210 205 198 194 191 185 179 176 174 173 172 171 171 170 166 148 18 348 345 349 356 9 14 16 19 15 13 9 6 7 4 2 1 1 358 356 354 350 348 343 340 338 334 333 332
282 317 70 216 316 308 243 228 263 255 255 242 165 166 185 211 232 222 219 229 217 211 220 205 199 203 224 208 231 243 234 229 227 221 221 225 226 225 227 227 228 227 224 224 225 227 227 226 225 222 220 216 213 209 201 197 197 195 187 185 184 182 180 179 181 181 194 292 319 318 322 330 339 347 360 5 7 7 5 4 2 2 360 359 359 358 357 356 355 353 351 348 344 342 338 336 333
284 306 57 336 282 284 250 229 248 233 256 231 170 176 194 225 223 223 232 231 238 221 205 197 201 214 236 226 242 249 237 234 229 223 222 224 223 221 223 224 226 227 226 227 228 230 230 229 229 226 224 220 217 213 207 202 202 202 195 192 193 190 189 188 193 206 243 279 297 305 311 312 317 322 332 341 344 348 348 350 349 348 349 348 349 350 351 350 349 348 345 343 341 340 337 334 331
269 279 92 291 247 233 241 231 260 208 249 252 186 189 186 245 227 223 243 237 240 231 219 214 213 225 240 247 252 248 236 235 229 223 221 221 221 219 221 222 223 225 226 228 229 230 230 230 230 229 226 222 220 216 212 208 205 205 201 198 198 198 197 198 206 221 245 267 283 287 287 286 288 293 301 310 317 324 328 333 334 335 336 337 339 340 342 342 340 339 336 334 331 329 328 326 323
204 115 157 242 229 217 208 209 252 202 222 236 207 202 190 240 239 228 249 244 241 240 234 232 229 232 241 249 253 253 245 238 234 230 228 225 225 226 226 227 226 226 227 227 229 230 230 230 230 229 227 224 222 219 215 212 209 208 206 204 203 204 204 205 214 226 243 258 268 270 271 272 272 276 281 289 298 306 313 318 321 323 325 326 328 330 333 334 332 331 329 327 324 322 320 318 317
193 160 174 233 214 224 251 272 275 293 241 208 202 212 207 240 249 225 242 249 239 240 243 237 236 238 241 246 249 251 249 243 241 239 238 237 238 239 238 235 232 230 230 231 232 233 232 230 230 229 228 226 222 221 218 215 213 211 209 208 207 207 209 211 218 228 239 251 260 265 266 266 265 265 268 274 281 290 297 301 304 306 310 314 316 319 320 323 324 324 323 321 319 317 314 312 311
209 197 222 245 225 253 283 299 304 303 277 222 215 221 215 241 245 214 228 260 250 231 238 231 232 239 239 243 246 247 248 246 245 244 244 245 246 247 246 244 242 240 239 240 237 236 234 232 231 231 230 228 224 223 221 219 215 213 213 211 211 211 212 214 220 228 235 244 252 256 255 255 255 255 259 263 268 274 278 280 282 286 293 300 303 308 311 314 317 318 319 318 316 315 313 311 309
199 184 205 240 232 281 277 291 303 287 287 275 289 270 249 255 240 227 228 269 268 239 241 239 241 249 245 241 244 246 247 247 247 247 248 248 248 248 249 249 250 250 245 241 239 237 237 236 234 232 232 230 227 226 225 223 218 216 215 213 213 213 214 216 220 226 232 239 244 247 246 245 246 247 251 255 259 261 261 262 265 271 279 287 293 297 301 305 310 313 315 316 317 316 314 313 311
206 215 223 238 247 278 275 286 293 280 285 279 279 284 274 267 239 237 225 224 255 252 255 254 255 262 256 249 248 245 245 247 248 249 250 251 251 251 251 250 247 245 241 239 240 240 239 238 236 235 234 233 230 229 228 225 222 219 218 215 215 215 216 218 221 226 231 236 241 243 243 241 243 245 249 252 255 256 254 255 258 265 274 280 284 288 292 297 301 307 312 316 319 319 319 318 316
224 251 237 246 249 254 271 280 286 280 274 266 272 269 268 268 257 250 231 235 255 261 264 263 263 267 264 258 250 245 245 246 248 250 252 252 253 253 252 251 248 245 244 243 241 240 239 237 236 235 234 234 232 230 229 227 225 222 220 218 217 217 218 219 222 227 231 236 240 243 242 242 243 244 248 251 254 255 254 255 258 265 271 276 278 282 286 291 297 304 311 317 322 324 324 322 320
218 263 263 261 259 260 270 280 286 279 267 268 273 269 264 251 261 265 245 251 261 264 263 261 262 266 266 261 252 248 249 249 252 254 255 255 256 257 256 255 254 251 248 246 242 239 239 237 236 236 235 234 232 231 231 230 228 224 222 220 218 219 220 221 224 228 232 237 240 242 243 241 242 244 246 250 253 255 255 257 260 264 268 271 275 279 284 291 299 307 315 322 327 330 329 327 324
216 249 266 269 271 270 275 284 287 281 274 274 269 258 255 250 261 275 260 262 266 264 266 267 262 261 259 259 257 253 252 251 253 253 253 254 254 252 251 251 250 248 247 246 244 242 241 239 237 237 236 234 232 231 231 231 229 226 224 222 219 219 221 222 224 229 234 237 240 242 242 241 241 242 246 249 252 254 255 257 259 262 265 268 273 279 285 294 302 310 317 324 328 330 330 330 327
218 241 266 281 282 283 284 283 282 280 276 267 251 254 256 255 268 277 266 266 269 266 267 268 264 257 253 253 254 254 254 254 254 254 255 255 251 249 248 247 246 246 248 246 245 245 243 241 239 238 237 235 233 231 231 230 230 228 226 224 222 221 222 223 225 229 233 237 240 240 239 239 239 241 245 249 251 253 254 255 258 259 261 265 271 279 287 296 303 309 314 318 322 326 329 330 330
256 277 291 288 287 291 288 281 278 276 274 258 229 250 262 254 243 268 269 270 272 268 265 266 261 255 253 251 252 253 254 256 257 257 255 253 250 250 250 247 246 248 247 245 245 246 244 243 241 239 236 234 233 231 231 230 230 230 228 226 223 223 223 224 226 229 233 236 237 238 237 236 237 240 243 247 249 252 253 254 256 256 258 263 270 280 289 297 301 305 309 314 319 325 329 332 332
281 305 309 290 292 297 285 276 275 270 271 252 221 245 275 253 190 246 264 268 267 264 265 267 258 254 253 250 253 254 255 258 259 256 253 253 253 253 252 250 250 248 246 246 244 244 244 244 243 241 237 234 233 231 230 230 230 230 228 226 225 225 225 225 227 229 232 235 236 236 235 234 236 239 242 246 249 251 253 253 254 254 257 263 272 281 288 294 298 303 308 315 320 326 331 332 331
294 310 311 290 305 299 278 271 267 251 250 238 195 264 282 228 223 246 261 266 263 263 264 264 259 256 254 251 252 253 257 259 255 254 255 257 257 256 256 256 254 250 250 248 244 242 244 245 244 243 240 236 233 232 230 229 230 230 229 228 226 226 226 226 228 229 231 233 235 235 234 234 235 239 242 245 248 251 251 251 251 250 254 262 271 280 287 293 299 304 309 314 320 325 329 329 328
296 290 217 285 322 296 272 269 255 236 225 197 156 233 270 237 239 250 265 268 262 261 259 260 257 256 255 253 252 253 257 258 256 259 261 260 259 258 259 259 255 251 250 247 243 243 242 243 244 243 241 239 235 232 230 228 229 229 229 228 227 228 227 228 229 230 230 232 234 234 233 234 235 238 242 244 247 248 248 248 247 247 253 261 271 282 291 296 301 305 308 313 319 324 328 328 327
279 299 220 259 296 277 271 266 194 200 200 173 154 227 258 256 255 257 267 266 258 253 254 258 255 254 254 252 253 254 257 259 262 266 266 263 260 260 261 259 256 251 248 246 245 244 242 242 242 242 242 240 236 233 230 228 228 229 230 229 229 229 229 229 231 230 230 231 233 234 234 234 235 238 241 243 244 245 245 245 244 246 253 263 275 286 294 299 303 306 308 311 317 323 326 327 328
205 241 280 258 213 261 283 274 189 191 196 167 155 216 255 262 264 265 270 265 254 245 250 256 253 254 253 252 252 253 258 260 264 266 265 262 259 260 260 259 257 253 250 248 245 242 241 241 241 241 241 240 238 234 231 229 228 229 230 231 230 230 230 231 232 231 231 232 233 234 234 234 235 237 240 242 242 243 244 243 243 246 253 264 276 287 295 301 304 306 307 310 315 320 323 327 329
288 198 251 260 230 265 296 291 211 181 164 174 189 213 255 265 263 266 269 263 252 239 246 252 252 256 254 253 253 252 257 260 261 264 263 261 261 261 259 257 256 255 254 250 244 241 239 239 239 240 241 240 238 235 231 229 228 229 230 231 231 231 232 233 233 232 231 232 233 234 234 234 235 237 238 240 241 241 242 242 242 245 252 264 276 286 295 300 303 305 307 310 314 320 325 328 329
282 206 237 252 243 262 273 296 283 157 148 198 222 226 250 259 265 269 264 262 258 237 241 248 251 256 257 258 257 255 257 258 261 265 265 264 264 265 261 257 255 253 253 249 244 241 239 238 237 238 239 238 238 236 233 230 228 229 230 231 231 231 232 233 234 233 232 232 233 234 233 233 234 236 238 238 239 239 239 240 241 244 252 264 275 285 294 299 302 304 306 310 315 322 328 329 329
234 206 228 254 250 256 256 270 215 156 168 207 219 233 250 258 265 267 264 264 266 247 243 249 253 256 259 260 259 259 258 259 265 269 267 267 267 267 263 257 254 251 250 247 243 239 237 237 235 236 237 236 236 235 233 230 228 228 228 229 229 230 231 232 233 233 232 232 232 233 232 233 234 235 237 237 237 237 238 239 241 245 252 262 273 283 293 298 300 302 304 308 315 323 330 330 328
229 230 239 252 252 258 257 263 220 174 199 218 219 233 242 254 258 258 261 263 264 260 252 250 252 255 258 259 259 259 257 261 269 271 269 269 268 267 262 256 252 249 248 245 241 237 235 233 232 233 235 235 234 232 230 227 226 226 227 227 227 228 229 231 233 233 233 232 232 233 232 232 233 234 236 236 236 236 237 239 241 245 251 261 272 283 292 296 297 299 302 306 313 322 329 330 328
252 257 261 257 255 264 260 265 246 185 199 227 224 236 241 249 255 252 257 262 263 261 253 246 247 250 254 256 259 259 260 265 271 271 270 272 269 264 258 252 247 244 243 241 239 236 234 232 231 232 233 234 234 232 230 228 227 226 227 228 229 230 230 231 232 232 233 232 232 232 232 232 233 234 236 236 236 236 237 240 241 245 251 260 270 281 290 294 295 297 301 305 311 319 328 331 330
250 253 260 261 248 262 260 259 257 196 200 248 236 243 249 249 256 256 253 255 256 254 251 248 248 250 254 257 259 261 264 267 271 271 272 273 267 258 251 245 241 240 239 238 237 235 233 232 232 233 233 234 235 235 234 233 233 232 232 233 232 232 233 234 234 235 235 233 233 232 232 232 233 235 235 236 237 237 239 240 242 246 251 258 268 278 287 292 293 294 298 302 308 317 328 331 331
244 245 256 263 248 268 267 250 256 208 191 252 250 247 253 253 257 258 250 240 245 251 252 253 254 254 257 260 261 263 265 266 268 269 271 270 264 252 243 239 239 239 239 238 237 235 233 232 231 232 233 235 236 237 236 236 236 236 237 237 236 236 235 236 237 237 237 236 235 234 232 232 234 235 236 237 238 238 240 241 242 246 250 257 267 277 286 290 290 292 295 299 306 315 324 329 331
240 239 249 259 248 263 267 249 252 221 206 252 266 259 255 260 265 261 249 243 245 252 253 256 258 256 258 261 262 263 265 266 266 267 267 264 256 246 237 235 236 236 236 235 234 234 233 232 232 232 234 235 236 236 236 236 235 235 235 236 236 237 237 237 236 236 236 235 234 234 233 233 234 236 237 239 239 238 240 240 242 245 249 257 265 275 284 288 289 290 294 297 304 311 319 324 327
244 234 233 250 248 243 252 272 321 286 278 286 289 286 268 236 249 256 249 244 245 250 253 256 258 256 258 262 262 262 263 265 265 264 261 256 249 243 237 234 235 235 234 234 234 234 234 233 233 233 234 235 235 236 235 234 232 231 230 229 229 230 231 231 232 232 232 233 233 234 234 235 235 236 237 238 238 238 239 240 242 244 248 255 263 273 281 286 287 288 292 297 302 308 314 319 322
258 231 214 236 246 245 255 289 334 316 295 283 220 283 277 205 225 248 251 241 240 243 243 248 253 254 255 259 262 263 263 263 263 264 259 253 247 240 234 232 234 235 235 236 236 236 236 234 234 234 234 235 235 234 234 233 231 230 229 227 226 226 226 228 231 233 233 234 235 235 234 235 236 236 236 237 238 238 239 239 241 244 248 254 260 270 278 282 283 284 289 294 300 305 308 312 316
269 228 199 224 241 254 264 278 299 265 265 268 132 251 282 253 215 234 233 228 237 236 232 239 246 249 247 250 257 263 265 263 262 262 256 248 243 236 232 232 235 237 236 235 235 235 235 234 234 234 234 234 234 233 232 232 231 231 232 232 232 232 232 234 237 238 239 240 239 237 236 235 235 235 236 237 237 237 238 239 241 243 246 251 258 267 274 277 279 281 287 292 297 302 304 308 311
267 223 182 205 227 248 251 224 222 234 274 281 164 132 282 281 236 206 206 210 229 238 238 242 242 242 243 245 252 259 263 264 262 259 253 246 241 238 236 236 239 240 237 233 233 232 232 232 232 233 233 233 233 232 232 232 232 232 233 234 235 237 239 242 243 242 242 241 240 238 237 236 235 235 236 236 236 237 238 239 240 242 245 250 256 264 270 274 276 279 284 290 295 299 301 305 309
253 164 160 171 189 217 165 165 227 295 337 280 207 135 263 280 250 192 202 206 221 236 234 238 238 239 243 245 249 255 261 263 262 258 254 248 245 243 240 241 243 241 237 234 233 232 231 230 230 231 231 232 232 232 232 233 234 234 234 235 236 238 240 242 243 243 243 241 239 237 235 235 235 234 235 235 235 236 237 238 239 241 245 249 256 262 269 273 274 277 282 288 292 296 298 303 306
226 118 98 71 71 61 79 159 198 43 306 259 192 147 225 278 261 173 189 205 215 233 231 233 235 237 243 244 247 253 257 259 259 259 257 252 246 245 243 242 243 240 237 235 232 230 229 228 228 229 229 230 231 232 232 232 233 233 235 236 237 238 238 239 240 240 239 239 238 236 234 233 233 233 233 234 234 235 236 237 238 241 245 249 256 262 268 271 273 275 280 285 289 292 296 300 303
124 94 54 28 12 25 54 355 77 58 276 238 175 175 192 269 278 149 175 198 199 212 223 239 243 240 246 249 249 253 253 252 254 255 256 249 236 234 238 240 241 239 235 231 229 228 228 227 227 228 228 230 231 231 232 232 231 232 234 236 238 239 239 239 239 238 237 236 235 234 233 233 233 233 234 234 234 235 235 236 238 240 244 250 256 261 266 269 271 274 279 283 286 289 293 298 301
90 92 76 23 327 10 30 352 61 208 263 215 180 183 183 233 264 154 226 241 201 198 201 226 239 239 244 247 250 254 253 250 248 247 249 243 228 225 233 237 237 235 231 228 226 225 225 226 226 227 228 228 230 231 232 231 230 231 233 235 237 238 239 240 240 241 239 237 236 235 233 233 233 233 233 234 234 234 235 236 237 240 244 250 255 260 264 267 270 273 278 281 283 287 292 296 299
104 107 105 69 296 341 356 310 81 223 254 224 189 180 198 239 250 217 271 283 229 209 206 214 221 231 237 241 252 258 252 247 243 238 240 240 234 232 239 241 234 227 224 222 222 222 223 223 224 225 226 227 228 230 231 231 229 230 232 233 235 236 238 240 241 242 242 241 239 238 236 235 233 233 233 234 235 236 236 237 238 241 244 248 253 258 262 266 269 272 276 278 281 287 293 296 298
161 147 145 170 215 236 266 260 259 256 262 252 186 165 239 277 275 210 227 238 221 209 214 219 222 227 227 235 255 261 247 241 237 231 234 240 242 246 252 248 234 223 218 217 219 220 221 222 223 224 225 226 228 230 231 231 230 230 233 234 234 234 236 239 241 242 242 242 242 241 241 240 239 238 238 238 238 238 237 236 237 239 242 246 250 256 261 264 267 271 274 276 281 288 291 294 297
184 157 148 180 181 175 207 235 249 267 287 279 181 161 235 294 280 212 217 236 230 215 219 223 228 231 226 233 254 254 236 230 226 223 232 239 243 251 256 250 235 223 217 216 217 220 221 222 222 222 223 224 227 229 231 231 230 230 232 234 234 234 234 237 240 242 243 243 243 243 242 242 242 242 241 241 239 238 236 236 236 238 241 244 249 254 259 263 266 270 273 276 281 286 289 292 297
222 125 122 219 203 188 222 256 239 217 321 288 213 201 239 250 256 241 235 257 250 227 226 226 231 234 231 236 243 236 222 216 215 220 234 240 240 248 252 248 236 225 219 219 220 221 223 222 222 222 222 224 226 228 230 231 231 230 232 233 234 234 233 234 238 241 243 243 243 243 243 243 243 242 240 239 237 236 235 235 236 238 240 244 248 253 258 262 266 269 271 275 280 284 288 293 297
199 127 183 219 168 171 223 283 294 126 263 271 231 235 277 313 282 256 227 242 256 259 251 239 235 235 234 237 235 222 213 213 217 227 242 246 246 251 252 247 238 227 224 227 228 228 227 225 225 224 224 225 227 228 230 231 231 231 231 233 234 234 234 234 235 239 241 241 241 242 242 242 241 240 238 236 236 235 234 235 236 238 240 245 248 253 257 260 264 267 270 275 281 284 288 293 296
129 179 214 196 63 121 165 243 319 284 249 264 261 260 280 301 282 300 44 300 264 261 250 237 237 234 234 240 236 221 216 218 222 234 249 254 255 257 252 244 238 232 231 237 239 236 232 230 230 228 227 228 229 229 230 231 232 232 231 232 234 235 235 236 236 237 238 239 239 239 239 239 238 237 236 235 234 234 233 234 235 238 241 245 248 252 256 260 263 266 270 275 280 284 288 291 293
139 205 211 118 151 228 157 175 226 246 246 260 273 275 273 250 256 291 320 266 247 239 233 232 237 236 237 243 242 231 221 222 229 238 249 255 258 261 252 242 238 234 238 247 247 241 237 236 235 233 232 232 233 232 232 232 233 233 233 233 235 235 236 237 236 236 236 237 239 239 238 237 236 235 234 234 234 233 233 233 235 238 241 244 248 251 255 259 262 265 270 275 279 283 287 289 290
107 351 333 90 178 187 185 182 168 222 243 257 271 280 275 251 241 246 242 234 232 236 236 237 239 240 242 242 241 235 225 226 235 241 249 255 262 265 253 241 240 241 249 258 254 246 242 240 239 238 236 234 234 234 234 234 234 234 235 235 235 236 237 237 237 237 236 236 237 238 237 237 235 234 234 234 234 233 233 234 235 237 240 243 247 250 254 258 262 266 270 274 278 282 285 287 288
184 215 248 246 221 174 221 238 172 209 236 245 251 262 270 262 191 157 235 225 213 220 219 227 235 238 242 244 242 237 230 231 235 239 254 263 269 272 258 242 239 243 251 262 261 252 246 243 243 243 241 237 236 236 235 235 235 235 236 236 236 237 237 237 237 237 237 236 236 236 236 236 235 234 234 234 233 232 232 234 235 236 239 242 245 249 253 257 260 264 268 272 276 280 282 285 287
179 199 213 214 220 219 256 250 221 217 234 235 245 252 264 268 192 117 240 212 201 216 212 220 231 231 237 245 246 241 234 232 239 251 262 266 269 276 274 259 247 245 255 268 267 256 247 245 247 248 246 243 242 241 239 238 237 236 237 237 237 238 238 238 238 237 237 236 236 235 235 234 233 233 234 233 233 232 231 232 233 235 238 241 244 248 251 256 259 262 266 271 275 278 281 283 286